Hourly Data Report for August 03, 2002

SHERBROOKE A
QUEBEC

45°26'00.000" N
71°41'00.000" W
241.40 m
7028124
71610
YSC

Download Data

Hourly Data (August 2002)
Hourly Data Report for August 3, 2002
TIME
LST
Temp Definition
°C
Dew Point Definition
°C
Rel Hum Definition
%
Precip. Amount Definition
mm

Wind Dir Definition
10's deg

Wind Spd Definition
km/h
Visibility Definition
km
Stn Press Definition
kPa
Hmdx Definition


Wind Chill Definition


Weather Definition


00:00 20.1 19.2 95   32 4 5.6 98.72 27    
01:00 18.7 18.0 96   21 4 5.6 98.77      
02:00 19.9 19.2 96   23 9 5.6 98.83      
03:00 20.1 19.1 94   28 7 8.0 98.87 27    
04:00 20.1 19.2 95   25 7 6.4 98.93 27    
05:00 19.8 18.8 94   25 9 5.6 99.01      
06:00 20.4 19.0 92   30 7 8.0 99.07 27    
07:00 20.7 18.3 86   30 9 19.3 99.14 27   Mainly Clear
08:00 22.3 19.0 82   29 4 24.1 99.17 29   Mainly Clear
09:00 23.2 18.7 76     0 24.1 99.21 30   Mainly Clear
10:00 25.3 19.1 69   22 9 24.1 99.21 32   Mainly Clear
11:00 25.7 18.2 63   28 7 24.1 99.19 32   Mainly Clear
12:00 26.7 15.7 51   25 17 24.1 99.18 31   Mainly Clear
13:00 26.8 15.6 50   26 19 24.1 99.18 31   Mainly Clear
14:00 26.8 16.4 53   30 15 24.1 99.16 32   Mainly Clear
15:00 27.0 15.2 48   28 20 24.1 99.16 31   Mainly Clear
16:00 27.0 17.2 55   27 11 24.1 99.19 32   Mainly Clear
17:00 26.0 16.6 56   27 15 15.0 99.21 31    
18:00 24.7 15.9 58   27 9 15.0 99.24 29    
19:00 21.0 17.4 80   25 4 15.0 99.24 27    
20:00 17.6 15.9 90   27 4 15.0 99.30      
21:00 16.2 15.0 93   12 6 15.0 99.39      
22:00 15.2 14.5 96   10 4 15.0 99.37      
23:00 14.9 14.1 95     0 6.4 99.40      

Notes on Data Quality.

Legend

  • E = Estimated
  • M = Missing
  • NA = Not Available*
  • [empty] = Indicates an unobserved value
Date modified: